"Pseudo-MPEC" for YCB3006

Created 2017 Feb 16 15:14:33 UT using Find_Orb

Astrometry:
     YCB3006  C2017 02 05.32340 09 02 36.82 -02 42 20.8          18.2 V D0554G96
     YCB3006  C2017 02 05.32357 09 02 38.23 -02 42 18.2          18.2 V D0554G96
     YCB3006  C2017 02 05.32392 09 02 40.97 -02 42 14.0          18.6 V D0554G96
     YCB3006  C2017 02 05.40078 09 13 42.25 -02 24 59.5                 D0554G96
     YCB3006  C2017 02 05.40101 09 13 44.43 -02 24 56.4                 D0554G96
     YCB3006  C2017 02 05.40124 09 13 46.68 -02 24 52.5          19.0 V D0554G96
     YCB3006  C2017 02 05.40148 09 13 48.81 -02 24 49.5          19.1 V D0554G96
     YCB3006  C2017 02 05.42783 09 18 05.88 -02 18 54.8          19.3 V D0554G96
     YCB3006  C2017 02 05.42806 09 18 08.14 -02 18 51.5          19.8 V D0554G96
     YCB3006  C2017 02 05.42829 09 18 10.54 -02 18 48.1                 D0554G96
     YCB3006  C2017 02 05.42852 09 18 12.99 -02 18 44.7                 D0554G96
     YCB3006  C2017 02 05.42879 09 18 15.73 -02 18 41.4                 D0554G96
     YCB3006  C2017 02 05.42902 09 18 17.98 -02 18 37.5                 D0554G96
     YCB3006  C2017 02 05.42942 09 18 22.15 -02 18 32.5                 D0554G96
     YCB3006  C2017 02 05.43147 09 18 43.18 -02 18 05.1          18.7 V D0554G96

Station data:
(G96) Mt. Lemmon Survey (N32.442751 W110.788720)  US/Arizona.   Observers E.
    J. Christensen, A. R. Gibbs, A. D. Grauer, R. E. Hill, J. A. Johnson, R. A.
    Kowalski, S. M. Larson, F. C. Shelly.  1.5-m reflector + CCD.

Orbital elements:  YCB3006
   Perigee 2017 Feb 4.495734 +/- 0.00496 TT = 11:53:51 (JD 2457788.995734)
Epoch 2017 Feb  5.0 TT = JDT 2457789.5                        Gray
M 130.3801494 +/- 0.7               (J2000 equatorial)
n 258.5544480137 +/- 1.13           Peri.  168.0791496 +/- 0.09
a 52670.668502 +/- 153              Node   141.1008374 +/- 0.009
e   0.784239561 +/- 0.000854        Incl.    4.6890460 +/- 0.007
P2004.96m/1.392d           H 34.2   G  0.15   U 12.8  
q 11364.246517 +/- 77.3    Q 93977.090486 +/- 231
From 15 observations 2017 Feb. 5 (2.6 hr); mean residual 0".671
Residuals in arcseconds: 
170205 G96 .057- .067-    170205 G96 1.32+ .474+    170205 G96 .812+ .189+    
170205 G96 .584+ .266+    170205 G96 .525- .231+    170205 G96 .704+ .145-    
170205 G96 .549- .203-    170205 G96 .685- .624-    170205 G96 .676- .660+    
170205 G96 .419- .309-    170205 G96 1.81- .420-    170205 G96 .715+ .278+    
170205 G96 .065- .317-    170205 G96 .861- .116-    170205 G96 1.51+ .103+    

Ephemerides (geocentric):
Date (UTC) HH   RA              Dec         delta   r     elong  mag " sig PA
---- -- -- --  ------------   ------------  ------ ------ -----  --- ---- ---
2017 02 05 00  07 57 02.730   -01 44 44.27   89080 .98648 153.9 19.3  145  93
2017 02 05 01  08 06 09.862   -01 34 15.05   91001 .98650 155.6 19.3  108  95
2017 02 05 02  08 14 57.053   -01 23 60.00   92436 .98652 157.2 19.3   79  98
2017 02 05 03  08 23 30.636   -01 13 53.44   93400 .98654 158.6 19.2   57 102
2017 02 05 04  08 31 56.157   -01 03 50.12   93899 .98656 159.9 19.2   39 108
2017 02 05 05  08 40 18.720   -00 53 44.97   93938 .98657 161.1 19.2   26 118
2017 02 05 06  08 48 43.273   -00 43 32.90   93518 .98657 162.1 19.1   16 136
2017 02 05 07  08 57 14.870   -00 33 08.49   92635 .98658 162.9 19.1   12 164
2017 02 05 08  09 05 58.951   -00 22 25.83   91281 .98658 163.6 19.0   11  13
2017 02 05 09  09 15 01.673   -00 11 18.10   89444 .98657 163.9 19.0   12  32
2017 02 05 10  09 24 30.342   +00 00 22.81   87108 .98656 164.0 18.9   12  41
2017 02 05 11  09 34 34.028   +00 12 46.94   84249 .98655 163.7 18.8   12  46
2017 02 05 12  09 45 24.496   +00 26 07.13   80836 .98653 163.0 18.8   10  47
2017 02 05 13  09 57 17.709   +00 40 40.47   76829 .98651 161.8 18.7  7.3  42
2017 02 05 14  10 10 36.388   +00 56 50.57   72178 .98648 160.1 18.6  3.6  18
2017 02 05 15  10 25 54.706   +01 15 11.48   66811 .98645 157.6 18.5  3.4 109
2017 02 05 16  10 44 07.624   +01 36 34.88   60635 .98641 154.3 18.4  6.6  77
2017 02 05 17  11 06 51.531   +02 02 23.78   53519 .98636 149.7 18.3  6.6  50
2017 02 05 18  11 37 17.017   +02 35 00.30   45275 .98630 143.1 18.1   14 118
2017 02 05 19  12 22 55.504   +03 18 36.24   35631 .98622 132.8 17.9   90  95
2017 02 05 20  13 47 55.938   +04 17 43.30   24265 .98613 112.8 17.6  474  91
2017 02 05 21  18 00 12.021   +03 39 32.61   12608 .98602  52.6 19?? 3653  93
2017 02 05 22  01 39 32.599   -04 13 11.77   16988 .98603  65.2 19.0 3719  92
2017 02 05 23  04 08 45.716   -04 36 37.89   29189 .98612 100.8 18.4 1969  88
2017 02 06 00  05 12 12.138   -04 11 15.31   39815 .98621 116.0 18.6 1446  87
2017 02 06 01  05 50 11.815   -03 46 42.72   48841 .98629 124.9 18.8 1210  86
2017 02 06 02  06 16 57.047   -03 25 38.36   56591 .98636 131.2 18.9 1078  85
2017 02 06 03  06 37 35.940   -03 07 25.88   63300 .98642 135.9 19.0  994  85
2017 02 06 04  06 54 30.164   -02 51 22.41   69128 .98647 139.8 19.1  937  85
2017 02 06 05  07 08 55.430   -02 36 55.36   74190 .98652 143.0 19.2  897  85
2017 02 06 06  07 21 36.627   -02 23 41.04   78568 .98657 145.8 19.2  867  85
2017 02 06 07  07 33 02.502   -02 11 22.07   82324 .98661 148.2 19.3  846  84
2017 02 06 08  07 43 32.627   -01 59 45.31   85505 .98664 150.4 19.3  831  84
2017 02 06 09  07 53 21.035   -01 48 40.55   88146 .98668 152.4 19.3  822  84
2017 02 06 10  08 02 38.262   -01 37 59.53   90274 .98670 154.3 19.3  816  84
2017 02 06 11  08 11 32.576   -01 27 35.36   91910 .98673 156.0 19.3  815  84
2017 02 06 12  08 20 10.758   -01 17 22.03   93069 .98675 157.5 19.3  819  84
2017 02 06 13  08 28 38.626   -01 07 14.12   93762 .98676 159.0 19.2  826  84
2017 02 06 14  08 37 01.428   -00 57 06.48   93993 .98678 160.3 19.2  838  84
2017 02 06 15  08 45 24.137   -00 46 54.01   93765 .98679 161.5 19.2  854  84